Lincoln County, Oregon, United States
Lat: 44.65N, Lon: 123.85W
Wx Zone: ORZ004
Local Info
Past Weather Observations for Monday, May 23, 2016

NOTE: This archive is for the closest National Weather Service station to Lincoln County. Information may differ from the station used for current weather conditions.

Click here for Long-term Archive

Time Weather Temperature Dewpoint Humidity Pressure Winds Precip Visibility
23:55
Clear
46°F / 8°C 46°F / 8°C 100% 30.01 in
(1016 mb)
Calm - 10SM
23:35
Clear
46°F / 8°C 46°F / 8°C 100% 30.01 in
(1016 mb)
Calm - 10SM
23:15
Clear
46°F / 8°C 46°F / 8°C 100% 30.01 in
(1016 mb)
ESE 3.5 mph
(ESE 6 kph)
- 10SM
22:55
Clear
48°F / 9°C 46°F / 8°C 94% 30.01 in
(1016 mb)
Calm - 10SM
22:35
Partly Cloudy
50°F / 10°C 48°F / 9°C 94% 30.01 in
(1016 mb)
Calm - 10SM
22:15
Mostly Cloudy
52°F / 11°C 50°F / 10°C 94% 30.01 in
(1016 mb)
Calm - 10SM
21:55
Overcast
52°F / 11°C 50°F / 10°C 94% 30.01 in
(1016 mb)
Calm - 10SM
21:35
Overcast
52°F / 11°C 50°F / 10°C 94% 30.01 in
(1016 mb)
Calm - 10SM
21:15
Overcast
52°F / 11°C 50°F / 10°C 94% 30.01 in
(1016 mb)
Calm - 10SM
20:55
Overcast
52°F / 11°C 50°F / 10°C 94% 30.01 in
(1016 mb)
Calm - 10SM
20:35
Overcast
52°F / 11°C 50°F / 10°C 94% 30.01 in
(1016 mb)
Calm - 10SM
20:15
Mostly Cloudy
52°F / 11°C 50°F / 10°C 94% 30.01 in
(1016 mb)
Calm - 10SM
19:55
Clear
Fog And Mist
52°F / 11°C 50°F / 10°C 94% 30.01 in
(1016 mb)
Calm - 4SM
19:35
Clear
54°F / 12°C 52°F / 11°C 94% 29.98 in
(1015 mb)
Calm - 7SM
19:15
Clear
54°F / 12°C 52°F / 11°C 94% 29.98 in
(1015 mb)
SW 4.6 mph
(SW 7 kph)
- 10SM
18:55
Partly Cloudy
55°F / 13°C 52°F / 11°C 88% 29.98 in
(1015 mb)
SW 3.5 mph
(SW 6 kph)
- 10SM
18:35
Mostly Cloudy
55°F / 13°C 52°F / 11°C 88% 29.98 in
(1015 mb)
SW 3.5 mph
(SW 6 kph)
- 10SM
18:15
Overcast
55°F / 13°C 52°F / 11°C 88% 29.98 in
(1015 mb)
SW 5.8 mph
(SW 9 kph)
- 10SM
17:55
Overcast
55°F / 13°C 52°F / 11°C 88% 29.98 in
(1015 mb)
SW 3.5 mph
(SW 6 kph)
- 10SM
17:35
Mostly Cloudy
55°F / 13°C 52°F / 11°C 88% 29.98 in
(1015 mb)
SSW 3.5 mph
(SSW 6 kph)
- 10SM
17:15
Clear
55°F / 13°C 52°F / 11°C 88% 29.98 in
(1015 mb)
SW 5.8 mph
(SW 9 kph)
- 10SM
16:55
Partly Cloudy
55°F / 13°C 52°F / 11°C 88% 29.98 in
(1015 mb)
SW 6.9 mph
(SW 11 kph)
- 10SM
16:35
Partly Cloudy
57°F / 14°C 52°F / 11°C 82% 29.98 in
(1015 mb)
SW 6.9 mph
(SW 11 kph)
- 10SM
16:15
Mostly Cloudy
59°F / 15°C 52°F / 11°C 77% 29.98 in
(1015 mb)
SW 6.9 mph
(SW 11 kph)
- 10SM
15:55
Mostly Cloudy
57°F / 14°C 52°F / 11°C 82% 30.01 in
(1016 mb)
SW 6.9 mph
(SW 11 kph)
- 10SM
15:35
Partly Cloudy
57°F / 14°C 54°F / 12°C 88% 30.01 in
(1016 mb)
SW 8.1 mph
(SW 13 kph)
- 10SM
15:15
Clear
57°F / 14°C 54°F / 12°C 88% 30.01 in
(1016 mb)
SW 11.5 mph
(SW 19 kph)
- 10SM
14:55
Partly Cloudy
55°F / 13°C 54°F / 12°C 94% 30.01 in
(1016 mb)
SW 9.2 mph
(SW 15 kph)
- 10SM
14:35
Mostly Cloudy
57°F / 14°C 54°F / 12°C 88% 30.01 in
(1016 mb)
SW 10.4 mph
(SW 17 kph)
- 10SM
14:15
Mostly Cloudy
57°F / 14°C 54°F / 12°C 88% 30.01 in
(1016 mb)
SW 11.5 mph
(SW 19 kph)
- 10SM
13:55
Mostly Cloudy
55°F / 13°C 54°F / 12°C 94% 30.01 in
(1016 mb)
SSW 10.4 mph
(SSW 17 kph)
- 10SM
13:35
Mostly Cloudy
55°F / 13°C 54°F / 12°C 94% 30.01 in
(1016 mb)
SW 12.7 mph
(SW 20 kph)
- 10SM
13:15
Mostly Cloudy
55°F / 13°C 55°F / 13°C 100% 30.01 in
(1016 mb)
SW 13.8 mph
(SW 22 kph)
- 10SM
12:55
Mostly Cloudy
55°F / 13°C 55°F / 13°C 100% 29.98 in
(1015 mb)
SW 12.7 mph
(SW 20 kph)
- 10SM
12:35
Overcast
55°F / 13°C 54°F / 12°C 94% 29.98 in
(1015 mb)
S 11.5 mph
(S 19 kph)
- 7SM
12:15
Overcast
Fog And Mist
54°F / 12°C 54°F / 12°C 100% 29.98 in
(1015 mb)
S 11.5 mph
(S 19 kph)
- 1 1/4SM
11:55
Overcast
Fog And Mist
54°F / 12°C 54°F / 12°C 100% 29.98 in
(1015 mb)
SSE 13.8 mph
(SSE 22 kph)
0.01 in
(0.25 mm)
1 3/4SM
11:35
Overcast
Drizzle
54°F / 12°C 52°F / 11°C 94% 29.98 in
(1015 mb)
S 15 mph
(S 24 kph)
0.01 in
(0.25 mm)
1 1/4SM
11:15
Overcast
Rain
54°F / 12°C 52°F / 11°C 94% 29.98 in
(1015 mb)
S 16.1 mph
(S 26 kph)
- 2SM
10:55
Overcast
54°F / 12°C 52°F / 11°C 94% 29.98 in
(1015 mb)
S 13.8 mph
(S 22 kph)
0.01 in
(0.25 mm)
10SM
10:35
Overcast
Drizzle
52°F / 11°C 52°F / 11°C 100% 29.98 in
(1015 mb)
S 16.1 mph
(S 26 kph)
0.01 in
(0.25 mm)
2SM
10:15
Overcast
54°F / 12°C 52°F / 11°C 94% 29.98 in
(1015 mb)
S 12.7 mph
(S 20 kph)
- 7SM
09:55
Overcast
Drizzle
54°F / 12°C 52°F / 11°C 94% 29.98 in
(1015 mb)
S 15 mph
(S 24 kph)
- 2 1/2SM
09:35
Overcast
Light Rain
54°F / 12°C 52°F / 11°C 94% 29.98 in
(1015 mb)
SSE 10.4 mph
(SSE 17 kph)
- 2SM
09:15
Overcast
Fog And Mist
54°F / 12°C 52°F / 11°C 94% 29.98 in
(1015 mb)
S 13.8 mph
(S 22 kph)
- 5SM
08:55
Overcast
54°F / 12°C 52°F / 11°C 94% 29.98 in
(1015 mb)
S 9.2 mph
(S 15 kph)
- 7SM
08:35
Overcast
54°F / 12°C 52°F / 11°C 94% 29.98 in
(1015 mb)
S 9.2 mph
(S 15 kph)
- 7SM
08:15
Overcast
Fog And Mist
54°F / 12°C 52°F / 11°C 94% 29.98 in
(1015 mb)
S 10.4 mph
(S 17 kph)
- 3SM
07:55
Mostly Cloudy
52°F / 11°C 52°F / 11°C 100% 29.98 in
(1015 mb)
S 8.1 mph
(S 13 kph)
0.01 in
(0.25 mm)
10SM
07:35
Overcast
Drizzle
52°F / 11°C 52°F / 11°C 100% 29.98 in
(1015 mb)
SSE 6.9 mph
(SSE 11 kph)
0.01 in
(0.25 mm)
3SM
07:15
Overcast
Drizzle
52°F / 11°C 50°F / 10°C 94% 29.98 in
(1015 mb)
SSE 5.8 mph
(SSE 9 kph)
- 2 1/2SM
06:55
Overcast
Drizzle
52°F / 11°C 50°F / 10°C 94% 29.98 in
(1015 mb)
SSE 5.8 mph
(SSE 9 kph)
0.01 in
(0.25 mm)
4SM
06:35
Overcast
Drizzle
52°F / 11°C 50°F / 10°C 94% 29.98 in
(1015 mb)
SSE 6.9 mph
(SSE 11 kph)
0.01 in
(0.25 mm)
4SM
06:15
Overcast
Drizzle
52°F / 11°C 50°F / 10°C 94% 29.98 in
(1015 mb)
SSE 6.9 mph
(SSE 11 kph)
0.01 in
(0.25 mm)
4SM
05:55
Overcast
Light Rain
50°F / 10°C 50°F / 10°C 100% 29.98 in
(1015 mb)
SSE 6.9 mph
(SSE 11 kph)
0.01 in
(0.25 mm)
3SM
05:35
Overcast
Drizzle
50°F / 10°C 50°F / 10°C 100% 29.98 in
(1015 mb)
SE 3.5 mph
(SE 6 kph)
0.01 in
(0.25 mm)
4SM
05:15
Mostly Cloudy
Fog And Mist
50°F / 10°C 50°F / 10°C 100% 29.98 in
(1015 mb)
SE 4.6 mph
(SE 7 kph)
- 5SM
04:55
Overcast
Drizzle
50°F / 10°C 50°F / 10°C 100% 29.98 in
(1015 mb)
SE 4.6 mph
(SE 7 kph)
- 3SM
04:35
Overcast
50°F / 10°C 50°F / 10°C 100% 29.98 in
(1015 mb)
SE 3.5 mph
(SE 6 kph)
- 7SM
04:15
Overcast
50°F / 10°C 50°F / 10°C 100% 29.98 in
(1015 mb)
SE 3.5 mph
(SE 6 kph)
- 10SM
03:55
Mostly Cloudy
Drizzle
52°F / 11°C 50°F / 10°C 94% 29.98 in
(1015 mb)
Calm - 4SM
03:35
Partly Cloudy
52°F / 11°C 50°F / 10°C 94% 29.98 in
(1015 mb)
Calm - 10SM
03:15
Mostly Cloudy
52°F / 11°C 50°F / 10°C 94% 30.01 in
(1016 mb)
SSE 3.5 mph
(SSE 6 kph)
- 7SM
02:55
Overcast
52°F / 11°C 50°F / 10°C 94% 30.01 in
(1016 mb)
S 4.6 mph
(S 7 kph)
- 7SM
02:35
Overcast
Drizzle
52°F / 11°C 50°F / 10°C 94% 30.01 in
(1016 mb)
Calm - 5SM
02:15
Overcast
Rain
52°F / 11°C 50°F / 10°C 94% 30.01 in
(1016 mb)
S 3.5 mph
(S 6 kph)
- 5SM
01:55
Overcast
Fog And Mist
52°F / 11°C 50°F / 10°C 94% 30.01 in
(1016 mb)
SSE 4.6 mph
(SSE 7 kph)
- 5SM
01:35
Overcast
52°F / 11°C 50°F / 10°C 94% 30.01 in
(1016 mb)
SSE 4.6 mph
(SSE 7 kph)
- 7SM
01:15
Overcast
Fog And Mist
52°F / 11°C 50°F / 10°C 94% 30.01 in
(1016 mb)
SSE 4.6 mph
(SSE 7 kph)
- 5SM
00:55
Overcast
Drizzle
52°F / 11°C 50°F / 10°C 94% 30.01 in
(1016 mb)
S 8.1 mph
(S 13 kph)
0.01 in
(0.25 mm)
4SM
00:35
Overcast
Drizzle
52°F / 11°C 50°F / 10°C 94% 30.01 in
(1016 mb)
S 10.4 mph
(S 17 kph)
- 4SM
00:15
Mostly Cloudy
Heavy Rain
52°F / 11°C 50°F / 10°C 94% 30.04 in
(1017 mb)
S 13.8 mph
(S 22 kph)
- 5SM
Time Weather Temperature Dewpoint Humidity Pressure Winds Precip Visibility


Weather for websites

WeatherForYou.com, LLC is not responsible for any damages or problems caused by this service. Current weather conditions are obtained from the closest station including government and personal stations which may have varying degrees of accuracy. Weather forecasts are derived from the NOAA NDFD. Like all things, this site belongs to Jesus Christ... He just trusts us to maintain it. If you have any questions or comments email webmaster@weatherforyou.com

Copyright © 2016, WeatherForYou.com LLC. All rights reserved.